COSMOS 2491 DEB, 45129

Orbit data source: Space-Track

COSMOS 2491 DEB, 45129 is space debris in LEO originally from a launch on Wed, 25 Dec 2013 UTC launched from the Plesetsk Missile And Space Complex (PKMTR). Debris objects in space refer to the collection of defunct objects orbiting the Earth. Examples of debris include non-operational satellites, rocket bodies, and fragments generated from explosions, collisions, or faulty payload assembly.

Loading next visibility...
Identifier
45129, 2013-076AB
Orbit
LEO
Last TLE update
6 days ago
Origin
Manufacturer
TsNIIKhM
Mission
Spacecraft
Bus & Motor
Unknown
Mass
Unknown
Launch date (UTC)
2013-12-25 (12 years ago)
Launch vehicle
Unknown
Launch site
Plesetsk Missile And Space Complex (PKMTR)
Object type
Payload
Rocket body
Debris
Shape & HBR
Unknown
Radar Cross Section
Small (<0.1 m²)

Expand to show TLE details & history

TLE from 6 days ago
0 COSMOS 2491 DEB
1 45129U 13076AB  25176.21434604  .00003678  00000-0  17412-1 0  9993
2 45129  82.4422 345.9094 0223784 237.5051 120.4239 12.67141392113831
Epoch: 2025-06-25T05:08Z
TLE epoch observation values (Epoch: 2025-06-25T05:08:39.497Z)
Latitude
-0.00006°
Longitude
-4.85431°
Altitude
1,487.271 km
Speed
7.078 km/s
True Right ascension
23h 03m 38s
True Declination
0° 00' 00"
Sunlit
Object was in daylight at epoch
Visualization orbit readout
Latitude
71.31466°
Longitude
148.1103°
Altitude
1,479.323 km
Speed
7.096 km/s
Apparent Right ascension
09h 12m 12s
Apparent Declination
24° 17' 39"
Sunlit
Object is in daylight
Visualization observer readout
Local Sidereal Time
21:10:31
Azimuth
359.572° N
Elevation
-25.789°
Doppler factor
1
Orbital elements
Apogee altitude
1,564.783 km
Perigee altitude
1,217.064 km
Semi-major axis
7,769.061 km
Eccentricity
0.02238
Inclination
82.4422°
RAAN
345.9094°
Arg. of periapsis
237.5051°
True anomaly
Unknown
Mean anomaly
120.4239°
Eccentric anomaly
Unknown
Mean motion
3.1695 °/min
Orbital period
113.58 mins
BSTAR
0.017412
Loading maneuver chart data...
Loading SW <> Apogee altitude chart data...
Loading historical data...
Loading historical data...
Loading historical data...
Loading historical data...
Loading historical data...
Loading historical data...
Loading historical data...

COSMOS 2491 DEB Visibility forecast

Observer location: undefined°, undefined°

Span
Click to sort rows by Start time (UTC) header in descending order
Start Az.
Max El. time (UTC)
Max El. Az.
Max El.
End time (UTC)
End Az.
17 mins2025-07-01 10:55:13.528Z168.754° S2025-07-01 11:04:13.528Z81.706° E41.464°2025-07-01 11:12:13.528Z15.024° NNE
13 mins2025-07-01 12:53:13.528Z241.085° WSW2025-07-01 12:59:13.528Z293.255° NW27.026°2025-07-01 13:06:13.528Z347.574° N
10 mins2025-07-01 20:58:13.528Z24.048° NE2025-07-01 21:03:13.528Z67.207° ENE21.526°2025-07-01 21:08:13.528Z110.391° ESE
14 mins2025-07-01 22:51:13.528Z346.946° N2025-07-01 22:58:13.528Z280.334° WNW43.242°2025-07-01 23:05:13.528Z186.28° SSW
|